EN

Hourly Weather Ladyzhin

Today, 30 July, Friday

Time Temperature Precipitation Wind Pressure Humidity
00:00 +20°C° 0.2 mm 3 mps 740 mmHg 89%
01:00 +20°C° 0.2 mm 3 mps 740 mmHg 91%
02:00 +20°C° 0 mm 3 mps 740 mmHg 94%
03:00 +20°C° 0 mm 3 mps 740 mmHg 94%
04:00 +19°C° 0 mm 3 mps 740 mmHg 94%
05:00 +19°C° 0 mm 3 mps 740 mmHg 94%
06:00 +21°C° 0 mm 3 mps 740 mmHg 87%
07:00 +22°C° 0 mm 3 mps 741 mmHg 80%
08:00 +24°C° 0 mm 3 mps 741 mmHg 73%
09:00 +26°C° 0 mm 3 mps 741 mmHg 65%
10:00 +27°C° 0 mm 3 mps 741 mmHg 58%
11:00 +28°C° 0 mm 3 mps 741 mmHg 51%
12:00 +29°C° 0 mm 3 mps 741 mmHg 47%
13:00 +29°C° 0 mm 4 mps 741 mmHg 44%
14:00 +30°C° 0 mm 4 mps 741 mmHg 42%
15:00 +29°C° 0 mm 3 mps 740 mmHg 43%
16:00 +29°C° 0 mm 3 mps 740 mmHg 43%
17:00 +29°C° 0 mm 3 mps 740 mmHg 44%
18:00 +28°C° 0 mm 2 mps 740 mmHg 48%
19:00 +26°C° 0 mm 1 mps 740 mmHg 51%
20:00 +24°C° 0 mm 1 mps 740 mmHg 55%
21:00 +24°C° 0 mm 1 mps 740 mmHg 58%
22:00 +23°C° 0 mm 1 mps 740 mmHg 61%
23:00 +21°C° 0 mm 2 mps 740 mmHg 63%

Tomorrow, 31 July, Saturday

Time Temperature Precipitation Wind Pressure Humidity
00:00 +21°C° 0 mm 2 mps 740 mmHg 67%
01:00 +21°C° 0 mm 1 mps 740 mmHg 70%
02:00 +21°C° 0 mm 1 mps 740 mmHg 74%
03:00 +21°C° 0 mm 1 mps 740 mmHg 76%
04:00 +20°C° 0 mm 1 mps 740 mmHg 77%
05:00 +20°C° 0 mm 1 mps 740 mmHg 79%
06:00 +22°C° 0 mm 1 mps 741 mmHg 73%
07:00 +24°C° 0 mm 1 mps 741 mmHg 67%
08:00 +26°C° 0 mm 1 mps 741 mmHg 62%
09:00 +27°C° 0 mm 1 mps 741 mmHg 56%
10:00 +29°C° 0 mm 1 mps 741 mmHg 51%
11:00 +30°C° 0 mm 1 mps 741 mmHg 45%
12:00 +31°C° 0 mm 1 mps 741 mmHg 43%
13:00 +32°C° 0 mm 1 mps 741 mmHg 41%
14:00 +32°C° 0 mm 1 mps 740 mmHg 39%
15:00 +32°C° 0 mm 1 mps 740 mmHg 42%
16:00 +31°C° 0 mm 1 mps 740 mmHg 45%
17:00 +30°C° 0 mm 1 mps 740 mmHg 48%
18:00 +29°C° 0 mm 2 mps 740 mmHg 50%
19:00 +28°C° 0 mm 2 mps 740 mmHg 52%
20:00 +27°C° 0 mm 2 mps 740 mmHg 55%
21:00 +26°C° 0 mm 3 mps 740 mmHg 56%
22:00 +26°C° 0 mm 3 mps 740 mmHg 57%
23:00 +25°C° 0 mm 3 mps 740 mmHg 59%

Day after tomorrow, 1 August, Sunday

Time Temperature Precipitation Wind Pressure Humidity
00:00 +24°C° 0 mm 3 mps 740 mmHg 64%
01:00 +22°C° 0 mm 3 mps 740 mmHg 69%
02:00 +21°C° 0 mm 3 mps 740 mmHg 74%
03:00 +21°C° 0 mm 3 mps 740 mmHg 76%
04:00 +21°C° 0 mm 3 mps 740 mmHg 79%
05:00 +21°C° 0 mm 3 mps 739 mmHg 81%
06:00 +22°C° 0.3 mm 3 mps 740 mmHg 77%
07:00 +25°C° 0.3 mm 3 mps 740 mmHg 72%
08:00 +26°C° 0.3 mm 4 mps 740 mmHg 68%
09:00 +28°C° 0 mm 4 mps 740 mmHg 63%
10:00 +29°C° 0 mm 4 mps 740 mmHg 59%
11:00 +30°C° 0 mm 4 mps 740 mmHg 54%
12:00 +32°C° 0 mm 4 mps 740 mmHg 51%
13:00 +33°C° 0 mm 4 mps 740 mmHg 48%
14:00 +34°C° 0 mm 4 mps 740 mmHg 45%
15:00 +33°C° 0 mm 4 mps 740 mmHg 45%
16:00 +33°C° 0 mm 3 mps 740 mmHg 45%
17:00 +33°C° 0 mm 3 mps 739 mmHg 46%
18:00 +30°C° 0 mm 2 mps 739 mmHg 52%
19:00 +28°C° 0 mm 2 mps 739 mmHg 57%
20:00 +26°C° 0 mm 1 mps 739 mmHg 63%
21:00 +26°C° 0 mm 1 mps 739 mmHg 65%
22:00 +25°C° 0 mm 1 mps 739 mmHg 66%
23:00 +25°C° 0 mm 2 mps 739 mmHg 67%

2 August, Monday

Time Temperature Precipitation Wind Pressure Humidity
00:00 +25°C° 0.1 mm 2 mps 739 mmHg 69%
01:00 +24°C° 0.1 mm 2 mps 739 mmHg 72%
02:00 +24°C° 0.1 mm 3 mps 739 mmHg 74%
03:00 +22°C° 0 mm 3 mps 738 mmHg 74%
04:00 +22°C° 0 mm 4 mps 738 mmHg 75%
05:00 +21°C° 0 mm 4 mps 738 mmHg 76%
06:00 +22°C° 0.3 mm 5 mps 738 mmHg 75%
07:00 +23°C° 0.3 mm 5 mps 737 mmHg 73%
08:00 +24°C° 0.3 mm 6 mps 737 mmHg 72%
09:00 +26°C° 0 mm 6 mps 737 mmHg 66%
10:00 +28°C° 0 mm 6 mps 738 mmHg 61%
11:00 +29°C° 0 mm 6 mps 738 mmHg 55%
12:00 +30°C° 0 mm 6 mps 738 mmHg 52%
13:00 +32°C° 0 mm 6 mps 738 mmHg 50%
14:00 +33°C° 0 mm 6 mps 737 mmHg 47%
15:00 +30°C° 0.8 mm 6 mps 737 mmHg 55%
16:00 +28°C° 0.8 mm 7 mps 737 mmHg 63%
17:00 +27°C° 0.8 mm 7 mps 737 mmHg 71%
18:00 +25°C° 0.7 mm 5 mps 738 mmHg 76%
19:00 +22°C° 0.7 mm 4 mps 738 mmHg 82%
20:00 +20°C° 0.7 mm 2 mps 739 mmHg 88%
21:00 +19°C° 0.1 mm 3 mps 739 mmHg 87%
22:00 +18°C° 0.1 mm 3 mps 740 mmHg 87%
23:00 +17°C° 0.1 mm 3 mps 740 mmHg 87%

3 August, Tuesday

Time Temperature Precipitation Wind Pressure Humidity
00:00 +17°C° 0 mm 3 mps 740 mmHg 89%
01:00 +17°C° 0 mm 4 mps 740 mmHg 91%
02:00 +15°C° 0 mm 4 mps 741 mmHg 93%
03:00 +15°C° 0 mm 4 mps 741 mmHg 94%
04:00 +14°C° 0 mm 3 mps 741 mmHg 94%
05:00 +13°C° 0 mm 3 mps 742 mmHg 94%
06:00 +16°C° 0 mm 3 mps 742 mmHg 87%
07:00 +18°C° 0 mm 4 mps 742 mmHg 80%
08:00 +19°C° 0 mm 4 mps 743 mmHg 72%
09:00 +21°C° 0 mm 4 mps 743 mmHg 66%
10:00 +23°C° 0 mm 4 mps 743 mmHg 59%
11:00 +25°C° 0 mm 4 mps 743 mmHg 52%
12:00 +26°C° 0 mm 4 mps 743 mmHg 50%
13:00 +27°C° 0 mm 3 mps 743 mmHg 47%
14:00 +27°C° 0 mm 3 mps 743 mmHg 44%
15:00 +27°C° 0 mm 3 mps 743 mmHg 48%
16:00 +26°C° 0 mm 3 mps 743 mmHg 52%
17:00 +25°C° 0 mm 3 mps 743 mmHg 56%
18:00 +24°C° 0 mm 3 mps 743 mmHg 57%
19:00 +23°C° 0 mm 2 mps 744 mmHg 59%
20:00 +23°C° 0 mm 2 mps 744 mmHg 61%
21:00 +20°C° 0 mm 2 mps 744 mmHg 65%
22:00 +19°C° 0 mm 2 mps 744 mmHg 69%
23:00 +19°C° 0 mm 1 mps 744 mmHg 73%

4 August, Wednesday

Time Temperature Precipitation Wind Pressure Humidity
00:00 +19°C° 0 mm 1 mps 744 mmHg 75%
01:00 +18°C° 0 mm 1 mps 744 mmHg 77%
02:00 +18°C° 0 mm 1 mps 744 mmHg 79%
03:00 +16°C° 0 mm 1 mps 744 mmHg 80%
04:00 +16°C° 0 mm 1 mps 744 mmHg 81%
05:00 +16°C° 0 mm 2 mps 744 mmHg 82%
06:00 +18°C° 0 mm 2 mps 745 mmHg 76%
07:00 +20°C° 0 mm 2 mps 745 mmHg 69%
08:00 +23°C° 0 mm 2 mps 745 mmHg 63%
09:00 +24°C° 0 mm 3 mps 745 mmHg 57%
10:00 +26°C° 0 mm 3 mps 744 mmHg 52%
11:00 +28°C° 0 mm 4 mps 744 mmHg 47%
12:00 +28°C° 0 mm 4 mps 744 mmHg 47%
13:00 +28°C° 0 mm 4 mps 744 mmHg 47%
14:00 +29°C° 0 mm 4 mps 743 mmHg 47%
15:00 +28°C° 0 mm 4 mps 743 mmHg 50%
16:00 +28°C° 0 mm 3 mps 743 mmHg 53%
17:00 +28°C° 0 mm 3 mps 742 mmHg 56%
18:00 +26°C° 0.2 mm 3 mps 742 mmHg 62%
19:00 +24°C° 0.2 mm 3 mps 742 mmHg 68%
20:00 +22°C° 0.2 mm 4 mps 742 mmHg 74%
21:00 +21°C° 0.2 mm 4 mps 742 mmHg 78%
22:00 +20°C° 0.2 mm 4 mps 742 mmHg 82%
23:00 +19°C° 0.2 mm 4 mps 742 mmHg 87%
Show more